timestamp,surface_pressure_avg,surface_temp_avg,battery_voltage,lat,long
2022-03-12 00:09:01+00:00,245.0748,1.08,11.93,47.84626,-54.09684
2022-03-12 00:19:01+00:00,246.7881,1.09,11.93,47.84626,-54.09684
2022-03-12 00:29:01+00:00,246.6397,1.06,11.93,47.84626,-54.09684
2022-03-12 00:39:01+00:00,246.398,1.04,11.93,47.84626,-54.09684
2022-03-12 00:49:01+00:00,246.7881,1.04,11.93,47.84626,-54.09684
2022-03-12 00:59:01+00:00,246.0748,1.02,11.93,47.84626,-54.09684
2022-03-12 01:09:01+00:00,247.1314,1.0,11.93,47.84626,-54.09684
2022-03-12 01:19:00+00:00,248.6397,1.0,11.93,47.84626,-54.09684
2022-03-12 01:29:00+00:00,249.3464,1.0,11.93,47.84626,-54.09684
2022-03-12 01:39:00+00:00,248.3214,1.0,11.93,47.84626,-54.09684
2022-03-12 01:49:00+00:00,247.5814,1.0,11.93,47.84626,-54.09684
2022-03-12 01:59:00+00:00,248.2331,1.0,11.93,47.84626,-54.09684
2022-03-12 02:09:00+00:00,251.0764,1.0,11.93,47.84626,-54.09684
2022-03-12 02:19:00+00:00,253.5681,1.0,11.86,47.84626,-54.09684
2022-03-12 02:29:00+00:00,255.213,1.0,11.86,47.84626,-54.09684
2022-03-12 02:39:00+00:00,256.4814,1.0,11.86,47.84626,-54.09684
2022-03-12 02:49:00+00:00,255.8647,1.0,11.86,47.84626,-54.09684
2022-03-12 02:59:00+00:00,256.9414,1.0,11.86,47.84626,-54.09684
2022-03-12 03:09:00+00:00,258.7431,1.0,11.86,47.84626,-54.09684
2022-03-12 03:19:01+00:00,262.1948,1.0,11.93,47.84626,-54.09684
2022-03-12 03:29:01+00:00,263.3247,1.0,11.93,47.84626,-54.09684
2022-03-12 03:39:01+00:00,267.9381,1.0,11.93,47.84626,-54.09684
2022-03-12 03:49:01+00:00,271.7414,0.99,11.93,47.84626,-54.09684
2022-03-12 03:59:01+00:00,276.9581,0.96,11.93,47.84626,-54.09684
2022-03-12 04:09:01+00:00,279.6281,0.95,11.93,47.84626,-54.09684
2022-03-12 04:19:01+00:00,283.0563,0.94,11.93,47.84626,-54.09684
2022-03-12 04:29:01+00:00,285.3897,0.9,11.93,47.84626,-54.09684
2022-03-12 04:39:01+00:00,292.3713,0.9,11.93,47.84626,-54.09684
2022-03-12 04:49:01+00:00,294.9963,0.9,11.93,47.84626,-54.09684
2022-03-12 04:59:01+00:00,294.8414,0.89,11.93,47.84626,-54.09684
2022-03-12 05:09:01+00:00,300.7781,0.83,11.93,47.84626,-54.09684
2022-03-12 05:19:00+00:00,305.3864,0.82,11.93,47.84626,-54.09684
2022-03-12 05:29:00+00:00,302.2081,0.81,11.93,47.84626,-54.09684
2022-03-12 05:39:00+00:00,303.168,0.89,11.93,47.84626,-54.09684
2022-03-12 05:49:00+00:00,309.3646,0.89,11.93,47.84626,-54.09684
2022-03-12 05:59:00+00:00,312.7897,0.9,11.93,47.84626,-54.09684
2022-03-12 06:09:00+00:00,314.4014,0.89,11.93,47.84626,-54.09684
2022-03-12 06:19:01+00:00,320.6312,0.88,11.86,47.84626,-54.09684
2022-03-12 06:29:01+00:00,326.198,0.86,11.86,47.84626,-54.09684
2022-03-12 06:39:01+00:00,324.368,0.8,11.86,47.84626,-54.09684
2022-03-12 06:49:01+00:00,324.223,0.8,11.86,47.84626,-54.09684
2022-03-12 06:59:01+00:00,329.7396,0.8,11.86,47.84626,-54.09684
2022-03-12 07:09:01+00:00,333.5680000000001,0.8,11.86,47.84626,-54.09684
2022-03-12 07:19:01+00:00,329.1696,0.8,11.86,47.84626,-54.09684
2022-03-12 07:29:01+00:00,327.3146,0.6,11.86,47.84626,-54.09684
2022-03-12 07:39:01+00:00,329.7697,0.4,11.86,47.84626,-54.09684
2022-03-12 07:49:01+00:00,327.6047,0.2,11.86,47.84626,-54.09684
2022-03-12 07:59:01+00:00,320.4764,0.1,11.86,47.84626,-54.09684
2022-03-12 08:09:01+00:00,322.238,0.2,11.86,47.84626,-54.09684
2022-03-12 08:19:00+00:00,322.5947,0.18,11.86,47.84626,-54.09684
2022-03-12 08:29:00+00:00,318.653,0.25,11.86,47.84626,-54.09684
2022-03-12 08:39:00+00:00,315.4614,0.3,11.86,47.84626,-54.09684
2022-03-12 08:49:00+00:00,314.7413,0.3,11.86,47.84626,-54.09684
2022-03-12 08:59:00+00:00,310.0697,0.29,11.86,47.84626,-54.09684
2022-03-12 09:09:00+00:00,302.6314,0.2,11.86,47.84626,-54.09684
2022-03-12 09:19:00+00:00,298.553,0.2,11.86,47.84626,-54.09684
2022-03-12 09:29:00+00:00,298.558,0.16,11.86,47.84626,-54.09684
2022-03-12 09:39:00+00:00,297.7531,0.19,11.86,47.84626,-54.09684
2022-03-12 09:49:00+00:00,291.338,0.2,11.86,47.84626,-54.09684
2022-03-12 09:59:00+00:00,287.078,0.2,11.86,47.84626,-54.09684
2022-03-12 10:09:00+00:00,287.5297,0.2,11.86,47.84626,-54.09684
2022-03-12 10:19:00+00:00,285.073,0.22,11.86,47.84626,-54.09684
2022-03-12 10:29:00+00:00,276.4164,0.2,11.86,47.84626,-54.09684
2022-03-12 10:39:00+00:00,270.4114,0.2,11.86,47.84626,-54.09684
2022-03-12 10:49:00+00:00,273.4863,0.2,11.86,47.84626,-54.09684
2022-03-12 10:59:00+00:00,273.9047,0.2,11.86,47.84626,-54.09684
2022-03-12 11:09:00+00:00,265.6114,0.1,11.86,47.84626,-54.09684
2022-03-12 11:19:00+00:00,260.6814,0.03,12.01,47.84626,-54.09684
2022-03-12 11:29:00+00:00,266.2264,0.1,12.01,47.84626,-54.09684
2022-03-12 11:39:00+00:00,266.8664,0.12,12.01,47.84626,-54.09684
2022-03-12 11:49:00+00:00,257.0914,0.0,12.01,47.84626,-54.09684
2022-03-12 11:59:00+00:00,252.4714,-0.03,12.01,47.84626,-54.09684
2022-03-12 12:09:00+00:00,260.5797,-0.01,12.01,47.84626,-54.09684
2022-03-12 12:19:01+00:00,259.1931,0.0,12.25,47.84626,-54.09684
2022-03-12 12:29:01+00:00,253.3897,0.0,12.25,47.84626,-54.09684
2022-03-12 12:39:01+00:00,255.3547,0.01,12.25,47.84626,-54.09684
2022-03-12 12:49:01+00:00,263.2615,0.09,12.25,47.84626,-54.09684
2022-03-12 12:59:01+00:00,259.7214,0.1,12.25,47.84626,-54.09684
2022-03-12 13:09:01+00:00,257.538,0.1,12.25,47.84626,-54.09684
2022-03-12 13:19:00+00:00,261.7614,0.1,12.09,47.84626,-54.09684
2022-03-12 13:29:00+00:00,262.628,0.1,12.09,47.84626,-54.09684
2022-03-12 13:39:00+00:00,258.4064,0.18,12.09,47.84626,-54.09684
2022-03-12 13:49:00+00:00,255.6548,0.2,12.09,47.84626,-54.09684
2022-03-12 13:59:00+00:00,254.2514,0.24,12.09,47.84626,-54.09684
2022-03-12 14:09:00+00:00,251.9814,0.3,12.09,47.84626,-54.09684
2022-03-12 14:19:00+00:00,249.3631,0.3,12.01,47.84626,-54.09684
2022-03-12 14:29:00+00:00,241.8281,0.29,12.01,47.84626,-54.09684
2022-03-12 14:39:00+00:00,242.2081,0.25,12.01,47.84626,-54.09684
2022-03-12 14:49:00+00:00,248.3464,0.26,12.01,47.84626,-54.09684
2022-03-12 14:59:00+00:00,253.7347,0.38,12.01,47.84626,-54.09684
2022-03-12 15:09:00+00:00,255.4514,0.57,12.01,47.84626,-54.09684
2022-03-12 15:19:00+00:00,255.2431,0.6,12.01,47.84626,-54.09684
2022-03-12 15:29:00+00:00,250.3081,0.69,12.01,47.84626,-54.09684
2022-03-12 15:39:00+00:00,254.7997,0.8,12.01,47.84626,-54.09684
2022-03-12 15:49:00+00:00,264.2947,0.9,12.01,47.84626,-54.09684
2022-03-12 15:59:00+00:00,264.3331,0.9,12.01,47.84626,-54.09684
2022-03-12 16:09:00+00:00,258.5714,0.6,12.01,47.84626,-54.09684
2022-03-12 16:19:01+00:00,263.6514,0.6,12.01,47.84626,-54.09684
2022-03-12 16:29:01+00:00,272.3214,0.74,12.01,47.84626,-54.09684
2022-03-12 16:39:01+00:00,271.8714,0.9,12.01,47.84626,-54.09684
2022-03-12 16:49:01+00:00,264.4364,0.8,12.01,47.84626,-54.09684
2022-03-12 16:59:01+00:00,272.8748,0.8,12.01,47.84626,-54.09684
2022-03-12 17:09:01+00:00,283.9947,0.9,12.01,47.84626,-54.09684
2022-03-12 17:19:00+00:00,284.073,0.9,11.93,47.84626,-54.09684
2022-03-12 17:29:00+00:00,272.5198,0.8,11.93,47.84626,-54.09684
2022-03-12 17:39:00+00:00,273.7164,0.75,11.93,47.84626,-54.09684
2022-03-12 17:49:00+00:00,280.1414,0.99,11.93,47.84626,-54.09684
2022-03-12 17:59:00+00:00,278.4597,1.09,11.93,47.84626,-54.09684
2022-03-12 18:09:00+00:00,271.7464,1.08,11.93,47.84626,-54.09684
2022-03-12 18:19:00+00:00,272.1714,1.09,11.93,47.84626,-54.09684
2022-03-12 18:29:00+00:00,274.0081,1.09,11.93,47.84626,-54.09684
2022-03-12 18:39:00+00:00,275.448,1.0,11.93,47.84626,-54.09684
2022-03-12 18:49:00+00:00,280.7064,1.24,11.93,47.84626,-54.09684
2022-03-12 18:59:00+00:00,289.5096,1.3,11.93,47.84626,-54.09684
2022-03-12 19:09:00+00:00,300.9464,1.39,11.93,47.84626,-54.09684
2022-03-12 19:19:01+00:00,293.8747,1.3,11.93,47.84626,-54.09684
2022-03-12 19:29:01+00:00,292.5131,1.2,11.93,47.84626,-54.09684
2022-03-12 19:39:01+00:00,294.9263,1.14,11.93,47.84626,-54.09684
2022-03-12 19:49:01+00:00,305.5347,1.13,11.93,47.84626,-54.09684
2022-03-12 19:59:01+00:00,295.5081,1.1,11.93,47.84626,-54.09684
2022-03-12 20:09:01+00:00,287.8397,1.1,11.93,47.84626,-54.09684
2022-03-12 20:19:01+00:00,293.7314,1.1,11.93,47.84626,-54.09684
2022-03-12 20:29:01+00:00,300.1197,1.13,11.93,47.84626,-54.09684
2022-03-12 20:39:01+00:00,294.7414,1.2,11.93,47.84626,-54.09684
2022-03-12 20:49:01+00:00,290.6213,1.2,11.93,47.84626,-54.09684
2022-03-12 20:59:01+00:00,296.2964,1.2,11.93,47.84626,-54.09684
2022-03-12 21:09:01+00:00,295.6247,1.1,11.93,47.84626,-54.09684
2022-03-12 21:19:00+00:00,287.4913,1.0,11.93,47.84626,-54.09684
2022-03-12 21:29:00+00:00,292.9897,1.0,11.93,47.84626,-54.09684
2022-03-12 21:39:00+00:00,295.1597,1.08,11.93,47.84626,-54.09684
2022-03-12 21:49:00+00:00,284.4714,1.08,11.93,47.84626,-54.09684
2022-03-12 21:59:00+00:00,279.1147,1.0,11.93,47.84626,-54.09684
2022-03-12 22:09:00+00:00,287.1531,1.01,11.93,47.84626,-54.09684
2022-03-12 22:19:01+00:00,287.2264,1.0,11.93,47.84626,-54.09684
2022-03-12 22:29:01+00:00,276.5697,0.99,11.93,47.84626,-54.09684
2022-03-12 22:39:01+00:00,275.5964,0.96,11.93,47.84626,-54.09684
2022-03-12 22:49:01+00:00,276.5598,0.97,11.93,47.84626,-54.09684
2022-03-12 22:59:01+00:00,275.3647,1.0,11.93,47.84626,-54.09684
2022-03-12 23:09:01+00:00,271.6364,1.0,11.93,47.84626,-54.09684
2022-03-12 23:19:01+00:00,271.9064,1.0,11.93,47.84626,-54.09684
2022-03-12 23:29:01+00:00,269.6264,1.0,11.93,47.84626,-54.09684
2022-03-12 23:39:01+00:00,275.0814,1.0,11.93,47.84626,-54.09684
2022-03-12 23:49:01+00:00,269.4214,1.0,11.93,47.84626,-54.09684
2022-03-12 23:59:01+00:00,257.963,1.0,11.93,47.84626,-54.09684
